Regional Weather Roundup
Issued by NWS

Home | Current Version | Previous Version | Graphics & Text | Print | Product List | Glossary On
Versions: 1 2 3 4 5 6 7 8 9 10 11 12 13 14 15 16 17 18 19 20 21 22 23 24 25 26 27 28 29 30 31 32 33 34 35 36 37 38 39 40 41 42 43 44 45 46 47 48 49 50
000
ASUS43 KDMX 210407
RWRIA

WEATHER ROUNDUP FOR IOWA
NATIONAL WEATHER SERVICE DES MOINES IA
1100 PM CDT MON OCT 20 2014

NOTE: "FAIR" INDICATES FEW OR NO CLOUDS BELOW 12,000 FEET WITH NO
SIGNIFICANT WEATHER AND/OR OBSTRUCTIONS TO VISIBILITY.

* - THESE STATIONS ARE NOT NWS STATIONS...THUS NOT UNDER NWS
QUALITY CONTROL.  THEY ALSO DO NOT REPORT WEATHER SUCH
AS PRECIPITATION OR FOG.

IAZ001>003-012>014-020>022-031>034-043>046-210500-
   NORTHWEST IOWA

CITY           SKY/WX    TMP DP  RH WIND       PRES   REMARKS
CARROLL *      PTCLDY    41  39  93 W5        30.06R
CHEROKEE *     CLEAR     43  39  87 CALM      30.08R
DENISON *      CLEAR     43  41  93 CALM      30.06R
LE MARS *      CLEAR     41  39  93 CALM      30.07S
ORANGE CITY *  CLEAR     55  37  50 CALM      30.07R
SHELDON *      CLEAR     39  36  87 CALM      30.06S
SIOUX CITY     CLEAR     41  40  96 CALM      30.07R
SPENCER        CLEAR     40  35  83 W3        30.07R
STORM LAKE *   CLEAR     52  37  58 N7        30.08R
$$

IAZ055>058-069>071-079>083-090>094-210500-
   SOUTHWEST IOWA

CITY           SKY/WX    TMP DP  RH WIND       PRES   REMARKS
ATLANTIC *     CLEAR     43  39  87 CALM      30.07R
AUDUBON *      CLEAR     39  34  81 CALM      30.07S
CLARINDA *     CLEAR     41  41 100 CALM      30.09R
COUNCIL BLFS * CLEAR     55  41  58 CALM      30.06S
CRESTON *      CLEAR     50  41  71 W3        30.07R
HARLAN  *      CLEAR     41  41 100 CALM      30.11R
LAMONI         CLEAR     49  41  74 W5        30.07R
RED OAK *      PTCLDY    43  41  93 CALM      30.08R
SHENANDOAH *     N/A     45  43  93 CALM      30.08R
$$

IAZ047>049-059>061-072>074-084-210500-
   CENTRAL IOWA

CITY           SKY/WX    TMP DP  RH WIND       PRES   REMARKS
AMES           CLEAR     43  38  82 CALM      30.05R
ANKENY *       CLEAR     45  43  93 CALM      30.05S
CHARITON *     CLEAR     52  41  66 W5        30.05S
DES MOINES     CLEAR     55  41  59 CALM      30.05R
GRINNELL*      CLEAR     50  41  71 NW5       30.05R
KNOXVILLE *    CLEAR     50  39  66 W6        30.04R
MARSHALLTOWN   CLEAR     45  39  79 NW3       30.03S
PELLA *        CLEAR     48  41  76 NW3       30.06R
PERRY *          N/A     43  39  87 CALM      30.05S
$$

IAZ004>006-015-016-023>025-035-036-210500-
   NORTH CENTRAL IOWA

CITY           SKY/WX    TMP DP  RH WIND       PRES   REMARKS
ALGONA *       CLEAR     48  39  71 NW3       30.06R
CLARION *      CLEAR     41  39  93 CALM      30.05R
ESTHERVILLE    CLEAR     40  34  79 NW5       30.06R
FORT DODGE *   CLEAR     39  36  87 CALM      30.06R
MASON CITY     CLEAR     42  38  85 N5        30.06S
FOREST CITY *  CLEAR     41  37  87 NE5       30.05S
IOWA FALLS *     N/A     46  39  76 CALM      30.05S
$$

IAZ007>011-017>019-026>030-037>042-050>054-066-210500-
   NORTHEAST IOWA

CITY           SKY/WX    TMP DP  RH WIND       PRES   REMARKS
CEDAR RAPIDS   CLEAR     47  40  76 VRB6      30.03R
CHARLES CITY * CLEAR     46  39  76 NE7       30.05S
CLINTON *      CLEAR     45  39  81 NE3       30.06R
DECORAH *      PTCLDY    48  41  76 NE3       30.05R
DUBUQUE        CLEAR     46  39  76 NE7       30.04R
MONTICELLO *   CLEAR     41  39  93 CALM      30.04R
OELWEIN *      CLEAR     45  39  81 NE6       30.05R
WATERLOO       CLEAR     42  38  85 CALM      30.04R
$$

IAZ064-065-067-068-078-210500-
   EAST CENTRAL IOWA

CITY           SKY/WX    TMP DP  RH WIND       PRES   REMARKS
DAVENPORT      CLEAR     47  40  76 E7        30.04R
IOWA CITY      CLEAR     45  42  89 CALM      30.04R
MT. PLEASANT * CLEAR     52  41  66 NW5       30.03R
MUSCATINE *    CLEAR     50  41  71 NW3       30.03R
QUAD CITIES    CLEAR     46  41  82 SE3       30.03R
$$

IAZ062-063-075>077-085>089-095>099-210500-
   SOUTHEAST IOWA

CITY           SKY/WX    TMP DP  RH WIND       PRES   REMARKS
BURLINGTON     CLEAR     50  43  77 NW7       30.02R
FAIRFIELD *    CLEAR     50  41  71 NW6       30.03S
FORT MADISON * CLEAR     54  45  71 W3        30.03S
KEOKUK *       CLEAR     52  45  76 CALM      30.02S
OSKALOOSA *      N/A     48  41  76 NW5       30.05R
CENTERVILLE *  CLEAR     46  43  87 W5        30.06S
OTTUMWA        CLEAR     45  41  86 W3        30.04R
WASHINGTON *   CLEAR     48  43  81 NW7       30.03R
$$

ABBREVIATIONS USED IN REMARKS
   TC - TEMPERATURES IN CELSIUS
  WCI - WIND CHILL INDEX
   HX - HEAT INDEX
  VSB - VISIBILITY
$$




USA.gov is the U.S. government's official web portal to all federal, state and local government web resources and services.